• Join FlightAware (Why Join?)
  • Login
  • US Flag 
09:26PM EST


 

Airport Tracker/Info


-or-


 

Live Flight TrackerFlight Track Log ✈ SWA1971 ✈ 05-May-2013 ✈ KPHX - KABQ

Flight Track Log - Related Links

Times and Time Zones

All times are in EDT time to prevent confusion due to time zone crossing. See the SWA1971 flight status page for this flight to view local times or setup timezone preferences in your user account.

Time Position Orientation Groundspeed Altitude Reporting Facility
EDT Latitude Longitude Course Direction KTS MPH feet Rate Location/Type
11:52PM 33.4333 -112.1167 270° West 216 249 6,400  Level Phoenix TRACON
11:53PM 33.4667 -112.2000 296° West 274 315 10,100 3,079 Climbing Phoenix TRACON
11:53PM 33.4739 -112.1939 35° Northeast 265 305 10,300 2,416 Climbing Albuquerque Center
11:54PM 33.5417 -112.1303 38° Northeast 305 351 13,200 2,902 Climbing Albuquerque Center
11:55PM 33.5564 -112.0156 81° East 345 397 16,200 2,902 Climbing Albuquerque Center
11:56PM 33.5778 -111.9006 77° East 366 421 19,100 2,459 Climbing Albuquerque Center
11:57PM 33.6019 -111.7711 77° East 398 458 21,200 2,129 Climbing Albuquerque Center
11:58PM 33.6256 -111.6331 78° East 422 486 23,500 2,129 Climbing Albuquerque Center
11:59PM 33.6503 -111.4892 78° East 442 509 25,600 1,918 Climbing Albuquerque Center
12:00AM 33.6761 -111.3389 78° East 461 531 27,400 2,115 Climbing Albuquerque Center
12:01AM 33.7278 -111.1561 71° East 489 563 29,900 2,459 Climbing Albuquerque Center
12:02AM 33.7811 -111.0078 67° East 488 562 32,400 2,410 Climbing Albuquerque Center
12:03AM 33.8333 -110.8633 66° East 480 552 34,800 1,279 Climbing Albuquerque Center
12:04AM 33.8819 -110.7222 67° East 467 537 35,000 98 Climbing Albuquerque Center
12:05AM 33.9319 -110.5783 67° East 465 535 35,000  Level Albuquerque Center
12:06AM 33.9825 -110.4339 67° East 470 541 35,000  Level Albuquerque Center
12:07AM 34.0369 -110.2789 67° East 476 548 35,000  Level Albuquerque Center
12:08AM 34.0872 -110.1347 67° East 473 544 35,000  Level Albuquerque Center
12:09AM 34.1419 -109.9742 68° East 477 549 35,000  Level Albuquerque Center
12:10AM 34.1917 -109.8314 67° East 481 554 35,000  Level Albuquerque Center
12:11AM 34.2492 -109.6625 68° East 485 558 35,000  Level Albuquerque Center
12:12AM 34.2989 -109.5167 68° East 488 562 35,000  Level Albuquerque Center
12:13AM 34.3472 -109.3719 68° East 488 562 35,000  Level Albuquerque Center
12:14AM 34.4056 -109.2033 67° East 488 562 35,000  Level Albuquerque Center
12:15AM 34.4478 -109.0575 71° East 484 557 35,000 -344 Level Albuquerque Center
12:16AM 34.4808 -108.9058 75° East 484 557 34,300 -885 Descending Albuquerque Center
12:17AM 34.5217 -108.7322 74° East 483 556 33,200 -984 Descending Albuquerque Center
12:18AM 34.5553 -108.5856 74° East 479 551 32,300 -934 Descending Albuquerque Center
12:19AM 34.5917 -108.4256 75° East 476 548 31,300 -1,230 Descending Albuquerque Center
12:20AM 34.6275 -108.2731 74° East 472 543 29,800 -1,884 Descending Albuquerque Center
12:21AM 34.6600 -108.1250 75° East 461 531 27,500 -2,231 Descending Albuquerque Center
12:22AM 34.6939 -107.9806 74° East 451 519 25,300 -2,115 Descending Albuquerque Center
12:23AM 34.7244 -107.8403 75° East 437 503 23,200 -2,066 Descending Albuquerque Center
12:24AM 34.7542 -107.7067 75° East 419 482 21,100 -2,163 Descending Albuquerque Center
12:25AM 34.7664 -107.6397 77° East 410 472 20,100 -2,233 Descending Albuquerque Center
12:25AM 34.7767 -107.5986 73° East 405 466 19,500 -1,667 Descending Albuquerque Center
12:25AM 34.7836 -107.5769 69° East 404 465 19,100 -1,869 Descending Albuquerque Center
12:26AM 34.8025 -107.4736 77° East 386 444 17,600 -1,869 Descending Albuquerque Center
12:26AM 34.8111 -107.4514 65° Northeast 391 450 17,200 -2,000 Descending Albuquerque Center
12:27AM 34.8286 -107.3378 79° East 379 436 15,600 -1,770 Descending Albuquerque Center
12:27AM 34.8333 -107.3264 63° Northeast 383 441 15,400 -1,574 Descending Albuquerque Center
12:28AM 34.8531 -107.2181 77° East 367 422 14,000 -1,700 Descending Albuquerque Center
12:28AM 34.8556 -107.2069 75° East 371 427 13,700 -2,066 Descending Albuquerque Center
12:29AM 34.8761 -107.1036 76° East 345 397 11,900 -2,361 Descending Albuquerque Center
12:29AM 34.8814 -107.0692 79° East 356 410 11,300 -1,600 Descending Albuquerque Center
12:30AM 34.8975 -106.9922 76° East 341 392 10,300 -1,082 Descending Albuquerque Center
12:30AM 34.9022 -106.9594 80° East 347 399 10,200 -885 Descending Albuquerque Center
12:31AM 34.9167 -106.8917 75° East 300 345 9,400 -1,180 Descending Albuquerque Center
12:31AM 34.9197 -106.8636 82° East 315 362 9,000 -1,500 Descending Albuquerque Center
12:32AM 34.9325 -106.7997 76° East 271 312 7,900 -1,377 Descending Albuquerque Center
12:32AM 34.9361 -106.7736 80° East 292 336 7,600 -492 Descending Albuquerque Center
12:33AM 34.9503 -106.7175 73° East 239 275 7,400 -295 Descending Albuquerque Center
12:34AM 34.9611 -106.7042 45° Northeast 254 292 7,300 -885 Descending Albuquerque Center
12:34AM 34.9892 -106.6711 44° Northeast 153 176 6,500 -1,100 Descending Albuquerque Center
12:35AM 34.9939 -106.6636 52° Northeast 200 230 6,200 -1,000 Descending Albuquerque Center
12:35AM 35.0156 -106.6383 44° Northeast 128 147 5,500 -787 Descending Albuquerque Center
12:36AM 35.0208 -106.6308 49° Northeast 163 188 5,400 -300 Descending Albuquerque Center
12:38AM 35.0333 -106.6000 90° East  Level FlightAware Approximate